Retour au catalogue

THORAD AGENA D DEB

ActifPO
NORAD 4856·DEBRIS·🇺🇸 United States

Lancé Apr 8, 1970 depuis Vandenberg Space Force Base

Loading…

Prochains Passages (prochaines 24 heures)

TLE

FraisSource: Space-Track

Époque: Sep 14, 2026, 01:52 UTC

1 04856U 70025EL  26257.07842887  .00000329  00000-0  19061-3 0  9997
2 04856  99.7487  28.5105 0153153  77.3499 284.4744 14.10601678882945

Suivez THORAD AGENA D DEB en temps réel avec AllMySat

Download on the App Store